Location: Poughquag
(41.6090°N, 73.6820°W)
Time: 14:13:36
(UTC-04:00)

CUBEBUG 2 - Pass Details

Date: 05 June 2024
Orbit: 571 x 666 km, 97.8° (Epoch: 14 June)

Event Time Altitude Azimuth Distance (km) Brightness Sun altitude
Rises 02:13:04 0° 25° (NNE) 3,011 ? -23.2°
Reaches altitude 10° 02:15:37 10° 38° (NE) 2,097 ? -23.0°
Maximum altitude 02:19:29 26° 95° (E) 1,300 ? -22.8°
Enters shadow 02:21:02 22° 126° (SE) 1,456 ? -22.6°
